Showing default

SKYSAT C12, 43797

Orbit data source: Space-Track

SKYSAT C12, 43797 is a payload satellite owned by Terra Bella (US) in SSO that was launched on Mon, 03 Dec 2018 UTC via an FALCON 9 launch vehicle from the Air Force Western Test Range (AFWTR). Payload-class satellites include a variety of spacecraft equipped with specific instruments for various scientific and technological missions. These include communications satellites like Starlink; space stations such as the ISS; scientific satellites like the Hubble; Earth observation satellites from companies like Planet Labs, Umbra, and HawkEye 360; GPS; miniature CubeSats for education and research; and military/defense satellites.

Loading next visibility...
Identifier
43797, 2018-099AR
Orbit
SSO
Country
Flag of USUS
Related business
Manufacturer
Maxar SSL
Mission
Operational Commercial Imaging
Bus & Motor
SKYSAT-GEN2, Unknown motor
Mass
110 kg wet, 110 kg dry
Launch date (UTC)
2018-12-03 (7 years ago)
Launch vehicle
FALCON 9
Launch site
Air Force Western Test Range (AFWTR)
Object type
Payload
Rocket body
Debris
Shape & HBR
Box, 1.0 m
Radar Cross Section
0.888 m², Medium (>0.1 m² and < 1m²)

Expand to show TLE details & history
Last TLE update: 4 hours ago

TLE from 4 hours ago
0 SKYSAT C12
1 43797U 18099AR  26125.30625738  .00022191  00000-0  43212-3 0  9997
2 43797  96.9290 150.3066 0002204 339.2060  20.9101 15.47563531415226
Epoch: 2026-05-05T07:21Z
TLE epoch observation values (Epoch: 2026-05-05T07:21:00.637Z)
Latitude
-0.00007°
Longitude
176.87096°
Altitude
425.596 km
Speed
7.657 km/s
True Right ascension
10h 01m 13s
True Declination
0° 00' 00"
Sunlit
Object was in daylight at epoch
Visualization orbit readout
Latitude
Unknown
Longitude
Unknown
Altitude
Unknown
Speed
Unknown
Apparent Right ascension
Unknown
Apparent Declination
Unknown
Sunlit
N/A
Visualization observer readout
Local Sidereal Time
19:42:26
Azimuth
Unknown
Elevation
Unknown
Doppler factor
Unknown
Orbital elements
Apogee altitude
422.264 km
Perigee altitude
419.267 km
Semi-major axis
6,798.902 km
Eccentricity
0.00022
Inclination
96.929°
RAAN
150.3066°
Arg. of periapsis
339.206°
True anomaly
20.91912°
Mean anomaly
20.9101°
Eccentric anomaly
20.91461°
Mean motion
3.87155 °/min
Orbital period
92.99 mins
BSTAR
0.00043212
Loading maneuver chart data...
Computing Atmospheric mass density...
Loading historical data...
Loading historical data...
Loading historical data...
Loading historical data...
Loading historical data...
Loading historical data...
Loading historical data...

Documentation

Showing up to 5 results
|